Weather History for Newport, VT

Change the Weather History Date:

Sunday, August 4, 2013

  Actual Average Record
Temperature  
Mean Temperature 60 °F -  
Max Temperature 65 °F 79 °F 93 °F (1955)
Min Temperature 54 °F 57 °F 42 °F (1964)
Degree Days  
Heating Degree Days 6    
Growing Degree Days 10 (Base 50)    
Moisture  
Dew Point 53 °F    
Average Humidity 81    
Maximum Humidity 91    
Minimum Humidity 65    
Precipitation  
Precipitation 0.00 in - - ()
Sea Level Pressure  
Sea Level Pressure 29.86 in    
Wind  
Wind Speed 4 mph (West)    
Max Wind Speed 10 mph    
Max Gust Speed 16 mph    
Visibility 10 miles    
Events Rain    
Averages and records for this station are not official NWS values.
T = Trace of Precipitation, MM = Missing Value Source: NWS Daily Summary

Daily Weather History Graph

Daily Weather History Graph

Search for Another Location

Airport:

Trip Planner

Search our weather history database for the weather conditions in past years. The results will help you decide how hot, cold, wet, or windy it might be!

Date:

Astronomy

Aug. 04, 2013 Rise Set
Actual Time 5:38 AM EDT 8:10 PM EDT
Civil Twilight 5:05 AM EDT 8:44 PM EDT
Nautical Twilight 4:23 AM EDT 9:25 PM EDT
Astronomical Twilight 3:35 AM EDT 10:12 PM EDT
Moon 3:35 AM EDT (8/4) 6:32 PM EDT (8/4)
Length of Visible Light 15h 39m
Length of Day
14h 32m
Waning Crescent, 5% of the Moon is Illuminated
Aug 4
Waning Crescent
Aug 6
New
Aug 14
First Quarter
Aug 20
Full
Aug 28
Last Quarter

Hourly Weather History & Observations

Time (EDT) Temp. Dew Point Humidity Pressure Visibility Wind Dir Wind Speed Gust Speed Precip Events Conditions
12:15 AM 57.4 °F 53.8 °F 88% 29.84 in 10.0 mi South 4.6 mph - N/A   Overcast
12:35 AM 57.2 °F 53.6 °F 88% 29.84 in 10.0 mi SSW 3.5 mph - N/A   Mostly Cloudy
12:55 AM 56.5 °F 53.1 °F 88% 29.83 in 10.0 mi ESE 3.5 mph - N/A   Scattered Clouds
1:15 AM 55.6 °F 52.9 °F 91% 29.84 in 10.0 mi Calm Calm - N/A   Scattered Clouds
1:35 AM 55.8 °F 53.2 °F 91% 29.83 in 10.0 mi Calm Calm - N/A   Mostly Cloudy
1:55 AM 55.4 °F 52.7 °F 91% 29.82 in 10.0 mi South 3.5 mph - N/A   Overcast
2:15 AM 55.0 °F 52.3 °F 91% 29.82 in 10.0 mi SSW 5.8 mph - N/A   Overcast
2:35 AM 55.8 °F 52.7 °F 89% 29.82 in 10.0 mi WSW 4.6 mph - N/A   Scattered Clouds
2:55 AM 55.0 °F 52.2 °F 90% 29.82 in 7.0 mi Calm Calm - N/A   Scattered Clouds
3:15 AM 54.7 °F 52.0 °F 91% 29.82 in 10.0 mi SSW 3.5 mph - N/A   Mostly Cloudy
3:35 AM 54.5 °F 52.0 °F 91% 29.81 in 10.0 mi SSW 3.5 mph - N/A   Mostly Cloudy
3:55 AM 57.6 °F 53.1 °F 85% 29.81 in 10.0 mi WSW 4.6 mph - N/A   Mostly Cloudy
4:15 AM 55.8 °F 52.9 °F 90% 29.81 in 10.0 mi SSW 3.5 mph - N/A   Mostly Cloudy
4:35 AM 57.4 °F 53.2 °F 86% 29.82 in 10.0 mi Calm Calm - N/A   Overcast
4:55 AM 57.2 °F 53.1 °F 86% 29.82 in 10.0 mi Calm Calm - N/A   Overcast
5:15 AM 57.2 °F 52.7 °F 85% 29.82 in 10.0 mi Calm Calm - N/A   Scattered Clouds
5:35 AM 56.3 °F 52.7 °F 88% 29.83 in 10.0 mi SW 3.5 mph - N/A   Mostly Cloudy
5:55 AM 55.9 °F 52.3 °F 88% 29.83 in 10.0 mi WSW 4.6 mph - N/A   Mostly Cloudy
6:15 AM 57.2 °F 53.2 °F 87% 29.83 in 10.0 mi WSW 5.8 mph - N/A   Mostly Cloudy
6:35 AM 57.6 °F 53.1 °F 85% 29.83 in 10.0 mi WSW 8.1 mph - N/A   Scattered Clouds
6:55 AM 58.5 °F 53.8 °F 84% 29.84 in 10.0 mi WSW 6.9 mph - N/A   Scattered Clouds
7:15 AM 59.4 °F 54.5 °F 84% 29.85 in 10.0 mi West 5.8 mph - N/A   Mostly Cloudy
7:35 AM 60.1 °F 54.3 °F 81% 29.85 in 10.0 mi West 4.6 mph - N/A   Overcast
7:55 AM 60.6 °F 54.9 °F 81% 29.85 in 10.0 mi West 5.8 mph - N/A   Overcast
8:15 AM 60.1 °F 54.1 °F 81% 29.85 in 10.0 mi West 8.1 mph - N/A   Mostly Cloudy
8:35 AM 61.7 °F 55.0 °F 79% 29.85 in 10.0 mi WSW 5.8 mph - N/A   Scattered Clouds
8:55 AM 61.2 °F 53.8 °F 77% 29.85 in 10.0 mi West 3.5 mph - N/A   Overcast
9:15 AM 61.9 °F 54.5 °F 77% 29.85 in 10.0 mi West 3.5 mph - N/A   Overcast
9:35 AM 63.5 °F 55.0 °F 74% 29.84 in 10.0 mi WNW 4.6 mph - N/A   Mostly Cloudy
9:55 AM 64.6 °F 54.3 °F 69% 29.84 in 10.0 mi WNW 6.9 mph - N/A   Mostly Cloudy
10:15 AM 65.1 °F 53.8 °F 67% 29.84 in 10.0 mi WSW 9.2 mph - N/A   Mostly Cloudy
10:35 AM 64.2 °F 54.3 °F 70% 29.83 in 10.0 mi West 4.6 mph - N/A   Scattered Clouds
10:55 AM 64.6 °F 53.4 °F 67% 29.83 in 10.0 mi West 6.9 mph - N/A   Mostly Cloudy
11:15 AM 64.4 °F 53.8 °F 68% 29.84 in 7.0 mi NW 10.4 mph - N/A Rain Heavy Rain
11:35 AM 60.1 °F 54.7 °F 82% 29.85 in 10.0 mi WNW 5.8 mph - N/A Rain Light Rain
11:55 AM 60.1 °F 55.8 °F 86% 29.85 in 7.0 mi WNW 3.5 mph - N/A Rain Light Rain
12:15 PM 61.7 °F 56.5 °F 83% 29.85 in 10.0 mi NW 6.9 mph - N/A   Overcast
12:35 PM 61.2 °F 55.2 °F 81% 29.85 in 10.0 mi WNW 4.6 mph - N/A   Light Drizzle
12:55 PM 62.1 °F 55.0 °F 78% 29.84 in 7.0 mi NNW 3.5 mph - N/A Rain Light Rain
1:15 PM 61.3 °F 54.7 °F 79% 29.85 in 10.0 mi West 6.9 mph - N/A Rain Light Rain
1:35 PM 62.1 °F 55.0 °F 78% 29.85 in 10.0 mi West 3.5 mph - N/A   Overcast
1:55 PM 59.0 °F 50.5 °F 73% 29.85 in 10.0 mi WNW 5.8 mph - N/A   Mostly Cloudy
2:15 PM 60.3 °F 53.1 °F 77% 29.85 in 10.0 mi NW 4.6 mph - N/A   Scattered Clouds
2:35 PM 62.2 °F 54.0 °F 74% 29.84 in 10.0 mi Calm Calm - N/A   Scattered Clouds
2:55 PM 64.9 °F 54.7 °F 69% 29.85 in 10.0 mi NW 8.1 mph - N/A   Scattered Clouds
3:15 PM 62.8 °F 53.1 °F 71% 29.84 in 10.0 mi WNW 6.9 mph - N/A   Mostly Cloudy
3:35 PM 61.2 °F 52.0 °F 72% 29.85 in 10.0 mi West 3.5 mph - N/A Rain Light Rain
3:55 PM 64.4 °F 52.5 °F 65% 29.85 in 10.0 mi WNW 6.9 mph - N/A   Clear
4:15 PM 62.6 °F 52.0 °F 68% 29.85 in 10.0 mi WNW 8.1 mph - N/A   Mostly Cloudy
4:35 PM 59.7 °F 50.7 °F 72% 29.85 in 10.0 mi West 4.6 mph - N/A   Light Drizzle
4:55 PM 60.1 °F 51.4 °F 73% 29.85 in 10.0 mi Calm Calm - N/A   Scattered Clouds
5:15 PM 62.6 °F 52.7 °F 70% 29.85 in 10.0 mi West 5.8 mph - N/A   Scattered Clouds
5:35 PM 57.2 °F 50.9 °F 79% 29.86 in 4.0 mi WNW 8.1 mph 16.1 mph N/A Rain Rain
5:55 PM 56.3 °F 51.8 °F 85% 29.86 in 10.0 mi West 6.9 mph - N/A Rain Light Rain
6:15 PM 56.7 °F 51.8 °F 84% 29.87 in 10.0 mi Calm Calm - N/A   Light Drizzle
6:35 PM 57.6 °F 52.0 °F 82% 29.88 in 10.0 mi Calm Calm - N/A   Scattered Clouds
6:55 PM 57.4 °F 53.6 °F 87% 29.89 in 10.0 mi East 4.6 mph - N/A   Mostly Cloudy
7:15 PM 58.6 °F 52.5 °F 80% 29.89 in 10.0 mi Calm Calm - N/A   Overcast
7:35 PM 58.1 °F 53.1 °F 83% 29.90 in 10.0 mi Calm Calm - N/A Rain Rain
7:55 PM 57.2 °F 53.2 °F 87% 29.90 in 10.0 mi Calm Calm - N/A   Mostly Cloudy
8:15 PM 57.0 °F 52.7 °F 85% 29.90 in 10.0 mi West 5.8 mph - N/A   Scattered Clouds
8:35 PM 57.6 °F 51.8 °F 81% 29.91 in 10.0 mi Calm Calm - N/A   Scattered Clouds
8:55 PM 56.5 °F 51.6 °F 84% 29.91 in 10.0 mi West 5.8 mph - N/A   Scattered Clouds
9:15 PM 56.7 °F 51.1 °F 82% 29.91 in 10.0 mi WNW 3.5 mph - N/A   Scattered Clouds
9:35 PM 56.7 °F 51.4 °F 83% 29.91 in 10.0 mi West 4.6 mph - N/A Rain Light Rain
9:55 PM 56.3 °F 51.3 °F 83% 29.91 in 10.0 mi West 4.6 mph - N/A   Mostly Cloudy
10:15 PM 56.1 °F 51.1 °F 83% 29.91 in 10.0 mi West 5.8 mph - N/A   Scattered Clouds
10:35 PM 56.3 °F 50.9 °F 82% 29.92 in 10.0 mi WNW 4.6 mph - N/A   Clear
10:55 PM 56.3 °F 50.9 °F 82% 29.92 in 10.0 mi WNW 6.9 mph - N/A   Mostly Cloudy
11:15 PM 55.6 °F 51.1 °F 85% 29.92 in 10.0 mi WNW 8.1 mph - N/A   Scattered Clouds
11:35 PM 55.4 °F 50.9 °F 85% 29.92 in 10.0 mi WNW 5.8 mph - N/A   Scattered Clouds
11:55 PM 55.4 °F 50.4 °F 83% 29.93 in 10.0 mi West 5.8 mph - N/A   Mostly Cloudy